This demonstration page uses our WeatherBlox Daily Observations layout. Learn more.

Left ArrowRight Arrow

38.20091, -84.87328

Hourly Observations for July 22, 2020

Temp ( °F °C ) Dew Point ( °F °C ) Humidity (%) Winds ( mph kmh ) Pressure ( in mb ) Visibility ( mi km ) Precip ( " mm )
12:53 am 00:53 Mostly Cloudy 80 26.7 73 22.8 79 79 W 6 9 30.02 1017 10 16 0.00 0.00
1:12 am 01:12 Mostly Cloudy with Thunderstorms 80 26.7 73 22.8 79 79 S 8 13 30.01 1016 10 16 0.00 0.00
1:33 am 01:33 Mostly Cloudy 80 26.7 70 21.1 71 71 SSW 16 26 30.01 1016 10 16 0.00 0.00
1:53 am 01:53 Clear 79 26.1 70 21.1 74 74 SSW 12 19 30.02 1017 10 16 0.00 0.00
2:53 am 02:53 Clear 78 25.6 69 20.6 74 74 NW 6 9 30.02 1017 10 16 0.00 0.00
3:53 am 03:53 Clear 74 23.3 67 19.4 79 79 N 5 7 30.00 1016 10 16 0.00 0.00
4:53 am 04:53 Clear 73 22.8 68 20 84 84 SSE 6 9 30.02 1017 10 16 0.00 0.00
5:53 am 05:53 Clear 73 22.8 68 20 84 84 Calm 30.03 1017 10 16 0.00 0.00
6:53 am 06:53 Mostly Sunny 73 22.8 68 20 84 84 SSE 3 6 30.04 1017 10 16 0.00 0.00
7:53 am 07:53 Partly Cloudy 75 23.9 69 20.6 82 82 S 6 9 30.05 1018 10 16 0.00 0.00
8:53 am 08:53 Mostly Cloudy 76 24.4 69 20.6 79 79 ENE 3 6 30.06 1018 10 16 0.00 0.00
9:53 am 09:53 Partly Cloudy 78 25.6 70 21.1 76 76 SE 5 7 30.07 1018 10 16 0.00 0.00
10:53 am 10:53 Partly Cloudy 81 27.2 70 21.1 69 69 SSW 10 17 30.06 1018 10 16 0.00 0.00
11:53 am 11:53 Partly Cloudy 84 28.9 72 22.2 67 67 VRB 6 9 30.06 1018 10 16 0.00 0.00
12:53 pm 12:53 Partly Cloudy 87 30.6 72 22.2 61 61 SSW 8 13 30.06 1018 10 16 0.00 0.00
1:45 pm 13:45 Partly Cloudy with Nearby Thunderstorms 88 31.1 73 22.8 61 61 SW 10 17 30.02 1017 10 16 0.00 0.00
1:53 pm 13:53 Partly Cloudy with Nearby Thunderstorms 87 30.6 73 22.8 63 63 SSW 8 13 30.04 1017 10 16 0.00 0.00
2:05 pm 14:05 Partly Cloudy 87 30.6 73 22.8 63 63 S 7 11 30.02 1017 10 16 0.00 0.00
2:53 pm 14:53 Partly Cloudy 87 30.6 72 22.2 61 61 WSW 7 11 30.02 1017 10 16 0.00 0.00
3:53 pm 15:53 Partly Cloudy 88 31.1 72 22.2 59 59 SSW 12 19 29.99 1016 10 16 0.00 0.00
5:53 pm 17:53 Sunny 89 31.7 72 22.2 57 57 SW 8 13 29.98 1015 10 16 0.00 0.00
6:42 pm 18:42 Partly Cloudy with Nearby Thunderstorms 86 30 73 22.8 65 65 SW 5 7 29.97 1015 10 16 0.00 0.00
6:53 pm 18:53 Partly Cloudy 86 30 73 22.8 65 65 WSW 3 6 29.99 1016 10 16 0.00 0.00
7:02 pm 19:02 Partly Cloudy with Nearby Thunderstorms 85 29.4 73 22.8 68 68 WSW 3 6 29.98 1015 10 16 0.00 0.00
7:12 pm 19:12 Mostly Cloudy with Thunderstorms 83 28.3 72 22.2 70 70 undefined N/A 29.99 1016 10 16 0.00 0.00
7:53 pm 19:53 Mostly Cloudy with Thunderstorms 73 22.8 70 21.1 90 90 W 3 6 30.02 1017 9 14 0.09 2.29
8:08 pm 20:08 Partly Cloudy with Nearby Thunderstorms 74 23.3 70 21.1 88 88 Calm 30.00 1016 10 16 0.00 0.00
8:16 pm 20:16 Partly Cloudy with Light Rain 74 23.3 70 21.1 88 88 Calm 30.00 1016 10 16 0.00 0.00
8:53 pm 20:53 Sunny 74 23.3 71 21.7 91 91 ESE 5 7 30.00 1016 10 16 0.01 0.25
9:53 pm 21:53 Clear 74 23.3 70 21.1 88 88 SSW 3 6 30.02 1017 10 16 0.00 0.00
10:53 pm 22:53 Clear 74 23.3 70 21.1 88 88 Calm 30.05 1018 10 16 0.00 0.00
11:53 pm 23:53 Clear 74 23.3 71 21.7 91 91 Calm 30.05 1018 10 16 0.00 0.00

Powered by AerisWeather